Regional Weather Roundup
Issued by NWS Charleston, SC

Current Version | Previous Version | Graphics & Text | Print | Product List | Glossary On
Versions: 1 2 3 4 5 6 7 8 9 10 11 12 13 14 15 16 17 18 19 20 21 22 23 24 25 26 27 28 29 30 31 32 33 34 35 36 37 38 39 40 41 42 43 44 45 46 47 48 49 50
000
ASUS42 KCHS 190927
RWRCHS

REGIONAL WEATHER ROUNDUP
NATIONAL WEATHER SERVICE CHARLESTON SC
500 AM EDT SAT AUG 19 2017

NOTE: "FAIR" INDICATES FEW OR NO CLOUDS BELOW 12,000 FEET WITH NO
SIGNIFICANT WEATHER AND/OR OBSTRUCTIONS TO VISIBILITY.

NOT ALL STATIONS ARE QUALITY CONTROLLED. USE DATA WITH CAUTION...
ESPECIALLY DEWPOINT OBSERVATIONS.

SCZ027-030-031-034>040-042>050-191000-
...SOUTHEAST SOUTH CAROLINA...

CITY           SKY/WX    TMP DP  RH WIND       PRES   REMARKS
N CHARLESTON   PTCLDY    80  74  81 SW6       29.93S
WATERFRONT PRK   N/A    N/A N/A N/A SW5       29.77F
JOHNS ISLAND   FAIR      82  77  83 SW5       29.93S HX  91
PINOPOLIS        N/A     81  77  89 SW6       29.86F
MONCKS CORNER  FAIR      77  73  88 SW3       29.93S
SUMMERVILLE    FAIR      77  73  88 CALM      29.94S
BEAUFORT MCAS  CLEAR     79  76  90 SW7       29.93F
BEAUFORT ARPT  FAIR      79  73  83 SW6       29.93S
HILTON HEAD IS CLEAR     79  77  94 CALM      29.94S
WALTERBORO     SUNNY     77  73  88 CALM      29.94S
ALLENDALE      NOT AVBL

...SOUTHERN MIDLANDS AND PEE DEE...

CITY           SKY/WX    TMP DP  RH WIND       PRES   REMARKS
GEORGETOWN     FAIR      79  79 100 SW7       29.93S
KINGSTREE      PTSUNNY   77  75  94 CALM      29.92S
ORANGEBURG     CLEAR     77  74  90 CALM      29.92F
BARNWELL       FAIR      77  77 100 CALM      29.94R
AIKEN          FAIR      72  72 100 SW3       29.98R
MANNING        FAIR      79  79 100 MISG      29.92S
COLUMBIA       PTCLDY    78  73  84 W3        29.91F
SUMTER         MOCLDY    80  75  87 S6        29.90S
FLORENCE       MOCLDY    79  78  97 S5        29.92S
MYRTLE BEACH   NOT AVBL
N MYRTLE BEACH PTCLDY    82  79  90 SW12      29.91F HX  92

$$

GAZ063-065-086>088-099>101-113>116-118-119-134>141-150-191000-
...SOUTHEAST GEORGIA...

CITY           SKY/WX    TMP DP  RH WIND       PRES   REMARKS
SAVANNAH ARPT  CLEAR     77  74  90 SW5       29.95S
HUNTER AAF     PTCLDY    79  73  83 W6        29.93S
FORT STEWART   CLEAR     76  73  88 SW3       29.93S
STATESBORO     CLEAR     78  73  87 CALM      29.95S
SYLVANIA       SUNNY     76  76 100 CALM      29.95S
CLAXTON        FAIR      77  75  95 CALM      29.95S

...CSRA...CENTRAL AND FAR SOUTHEAST GEORGIA...

CITY           SKY/WX    TMP DP  RH WIND       PRES   REMARKS
THOMSON        CLEAR     70  69  96 CALM      30.00R
AUGUSTA-BUSH   PTCLDY    76  73  91 CALM      29.92S
AUGUSTA-DANIEL CLEAR     80  67  64 W3        29.94S
SWAINSBORO     FAIR      73  73 100 CALM      29.96F
VIDALIA        CLEAR     77  77 100 CALM      29.96S
EASTMAN        FAIR      74  74 100 CALM      29.99S FOG
HAZLEHURST     FAIR      78  76  93 CALM      29.95S
ALMA           CLEAR     76  73  91 CALM      29.95F
WAYCROSS       CLEAR     74  71  91 CALM      29.96S
JESUP          FAIR      75  72  88 CALM      29.96R
BAXLEY         FAIR      73  73 100 CALM      29.96S
BRUNSWICK      CLEAR     75  72  88 SW3       29.96S
SAINT SIMONS   CLEAR     78  76  93 SW9       29.96S

$$

SCZ027-028-034-036>038-045-046-048>050-GAZ119-141-191000-
...LAKE AND SUPPLEMENTAL COASTAL OBSERVATIONS...

STATION/POSITION TIME  TEMP    WIND        PRES    WAVE   SWELL
                       AIR SEA DIR/SP/G            HT/PER HT/PER/DIR
                 (UTC) (F)     (DEG/KT/KT) (MB)    (FT/S) (FT/S/D)
WINYAH BAY       0845   83     230/  8     1013.0F
LAKE MURRAY      0850   80     220/  2/  4 1012.2F
ACE BASIN NERRS  0845   80     220/  1     1014.0S
FORT PULASKI     0900   79 87  260/  4/  6 1014.2
SAPELO ISLAND    0900   78     230/  4     1014.0

$$

ANZ835-935-AMZ111-154-330-350-352-354-370-450-454-472-191000-
...C-MAN AND BUOY OBSERVATIONS...

STATION/POSITION TIME  TEMP    WIND        PRES    WAVE   SWELL
                       AIR SEA DIR/SP/G            HT/PER HT/PER/DIR
                 (UTC) (F)     (DEG/KT/KT) (MB)    (FT/S) (FT/S/D)
BUOY 41004       0910   84 85  220/ 14/ 16 1013.4
BUOY 41008       0850   81 85  240/ 10/ 12 1013.8F   2/ 8   2/ 90/ 8
FOLLY BEACH CMAN 0900   84     230/ 10/ 14 1014.2S
CAPERS NEARSHORE 0908   82 85  230/ 14/ 19 1013.1F
FRIPP NEARSHORE  0908   83     240/ 12/ 14 1013.1F


STATION/POSITION TIME  TEMP    WIND        PRES    WAVE   SWELL
                       AIR SEA DIR/SP/G            HT/PER HT/PER/DIR
                 (UTC) (F)     (DEG/KT/KT) (MB)    (FT/S) (FT/S/D)
5E ST. MARYS GA  0900      84                N/A     2/ 7
FRYING PAN BUOY  0910   84 84  230/ 17/ 21 1013.4
BUOY 41025       0850   84 85  230/ 19/ 23 1012.0F   5/ 6
CAPE LOOKOUT NC  0900   83     230/  9/ 13 1012.5F
BUOY 41002       0850   83 84  210/ 14/ 17 1015.5F   4/ 5   2/ 70/ 8
BUOY 41010       0910   84 85  160/ 10/ 12 1014.8
ST AUGUSTINE FL  0900   75 80  210/  3/  4 1015.3F


$$




USA.gov is the U.S. government's official web portal to all federal, state and local government web resources and services.